Weather History for Klamath Falls, OR

Change the Weather History Date:

Monday, October 15, 2012

  Actual Average Record
Temperature  
Mean Temperature 58 °F 47 °F  
Max Temperature 67 °F 64 °F 85 °F (1961)
Min Temperature 48 °F 31 °F 22 °F (1966)
Degree Days  
Heating Degree Days 7 18  
Month to date heating degree days 167 225  
Since 1 July heating degree days 359 581  
Cooling Degree Days 0 0  
Month to date cooling degree days 0 0  
Year to date cooling degree days 177 169  
Growing Degree Days 8 (Base 50)    
Moisture  
Dew Point 48 °F    
Average Humidity 72    
Maximum Humidity 100    
Minimum Humidity 52    
Precipitation  
Precipitation 0.19 in 0.02 in 0.52 in (1969)
Month to date precipitation 0.19 0.25  
Year to date precipitation 6.31 10.52  
Sea Level Pressure  
Sea Level Pressure 30.04 in    
Wind  
Wind Speed 5 mph (SSW)    
Max Wind Speed 16 mph    
Max Gust Speed 21 mph    
Visibility 10 miles    
Events Rain    
T = Trace of Precipitation, MM = Missing Value Source: NWS Daily Summary

Daily Weather History Graph

Daily Weather History Graph

Search for Another Location

Airport:

Trip Planner

Search our weather history database for the weather conditions in past years. The results will help you decide how hot, cold, wet, or windy it might be!

Date:

Astronomy

Oct. 15, 2012 Rise Set
Actual Time 7:20 AM PDT 6:24 PM PDT
Civil Twilight 6:51 AM PDT 6:52 PM PDT
Nautical Twilight 6:19 AM PDT 7:24 PM PDT
Astronomical Twilight 5:47 AM PDT 7:57 PM PDT
Moon 7:38 AM PDT (10/15) 6:25 PM PDT (10/15)
Length of Visible Light 12h 00m
Length of Day
11h 03m
New Moon, 0% of the Moon is Illuminated
Oct 15
New Moon
Oct 21
First Quarter
Oct 29
Full
Nov 6
Last Quarter
Nov 13
New

Hourly Weather History & Observations

Time (PDT) Temp. Dew Point Humidity Pressure Visibility Wind Dir Wind Speed Gust Speed Precip Events Conditions
12:53 AM 51.1 °F 46.0 °F 83% 30.06 in 10.0 mi South 3.5 mph - N/A   Overcast
1:53 AM 51.1 °F 46.0 °F 83% 30.06 in 10.0 mi Calm Calm - N/A   Overcast
2:53 AM 51.1 °F 45.0 °F 80% 30.04 in 10.0 mi Calm Calm - N/A   Overcast
3:53 AM 51.1 °F 45.0 °F 80% 30.05 in 10.0 mi Calm Calm - N/A   Overcast
4:53 AM 51.1 °F 44.1 °F 77% 30.04 in 10.0 mi WNW 3.5 mph - N/A   Overcast
5:53 AM 50.0 °F 43.0 °F 77% 30.07 in 10.0 mi Calm Calm - N/A   Overcast
6:00 AM 51.8 °F 44.6 °F 76% 30.14 in 10.0 mi Calm Calm - N/A   Mostly Cloudy
6:53 AM 52.0 °F 43.0 °F 71% 30.09 in 10.0 mi Calm Calm - N/A   Mostly Cloudy
7:53 AM 51.1 °F 44.1 °F 77% 30.09 in 10.0 mi Calm Calm - N/A   Overcast
8:05 AM 51.8 °F 44.6 °F 76% 30.15 in 10.0 mi Calm Calm - 0.00 in Rain Light Rain
8:53 AM 54.0 °F 45.0 °F 72% 30.12 in 10.0 mi South 5.8 mph - 0.00 in Rain Light Rain
9:53 AM 54.0 °F 46.0 °F 75% 30.12 in 10.0 mi South 5.8 mph - 0.00 in Rain Light Rain
10:53 AM 57.9 °F 46.0 °F 65% 30.10 in 10.0 mi South 5.8 mph - 0.00 in Rain Light Rain
11:33 AM 60.8 °F 46.4 °F 59% 30.16 in 10.0 mi South 8.1 mph - 0.00 in   Mostly Cloudy
11:53 AM 62.1 °F 48.0 °F 60% 30.08 in 10.0 mi South 9.2 mph - 0.00 in   Mostly Cloudy
12:53 PM 62.1 °F 48.9 °F 62% 30.07 in 10.0 mi Calm Calm - N/A   Mostly Cloudy
1:53 PM 64.4 °F 50.0 °F 59% 30.03 in 10.0 mi SW 3.5 mph - N/A   Mostly Cloudy
2:53 PM 66.0 °F 50.0 °F 56% 30.01 in 10.0 mi South 8.1 mph - N/A   Mostly Cloudy
3:53 PM 66.9 °F 48.9 °F 52% 29.98 in 10.0 mi WSW 9.2 mph - N/A   Mostly Cloudy
4:53 PM 66.2 °F 50.0 °F 56% 29.96 in 10.0 mi SW 12.7 mph - N/A   Mostly Cloudy
5:32 PM 66.2 °F 48.2 °F 52% 30.03 in 10.0 mi WSW 9.2 mph - 0.00 in Rain Light Rain
5:53 PM 64.0 °F 50.0 °F 60% 29.96 in 10.0 mi West 13.8 mph - 0.00 in Rain Light Rain
6:53 PM 60.1 °F 53.1 °F 78% 29.97 in 10.0 mi West 12.7 mph - 0.02 in Rain Light Rain
7:53 PM 57.9 °F 57.0 °F 97% 30.00 in 7.0 mi West 11.5 mph - 0.07 in Rain Light Rain
8:53 PM 57.0 °F 57.0 °F 100% 29.96 in 7.0 mi Calm Calm - 0.04 in Rain Light Rain
9:53 PM 57.0 °F 55.9 °F 96% 29.96 in 7.0 mi South 4.6 mph - 0.01 in Rain Light Rain
10:53 PM 57.0 °F - N/A% 29.92 in 10.0 mi South 8.1 mph - 0.03 in   Overcast
11:53 PM 57.0 °F - N/A% 29.90 in 8.0 mi South 6.9 mph - 0.01 in Rain Light Rain